Weather History for PATK - February, 2014

Change the Weather History Date:

Wednesday, February 26, 2014

  Actual Average Record
Temperature  
Mean Temperature 26 °F -  
Max Temperature 43 °F 31 °F 47 °F (1991)
Min Temperature 10 °F 12 °F -39 °F (1971)
Degree Days  
Heating Degree Days 38    
Moisture  
Dew Point 6 °F    
Average Humidity 30    
Maximum Humidity 41    
Minimum Humidity 16    
Precipitation  
Precipitation 0.00 in - - ()
Sea Level Pressure  
Sea Level Pressure 29.86 in    
Wind  
Wind Speed 8 mph (NNE)    
Max Wind Speed 15 mph    
Max Gust Speed 23 mph    
Visibility 10 miles    
Events      
Averages and records for this station are not official NWS values.
T = Trace of Precipitation, MM = Missing Value Source: NWS Daily Summary

Daily Weather History Graph

Daily Weather History Graph

Search for Another Location

Airport or City:

Trip Planner

Search our weather history database for the weather conditions in past years. The results will help you decide how hot, cold, wet, or windy it might be!

Date:

Astronomy

Feb. 26, 2014 Rise Set
Actual Time 8:12 AM AKST 6:15 PM AKST
Civil Twilight 7:26 AM AKST 7:00 PM AKST
Nautical Twilight 6:35 AM AKST 7:52 PM AKST
Astronomical Twilight 5:42 AM AKST 8:45 PM AKST
Moon 6:45 AM AKST (2/26) 3:07 PM AKST (2/26)
Length of Visible Light 11h 33m
Length of Day
10h 02m
Waning Crescent, 9% of the Moon is Illuminated
Feb 26
Waning Crescent
Feb 28
New
Mar 8
First Quarter
Mar 16
Full
Mar 23
Last Quarter

Hourly Weather History & Observations

Time (AKST) Temp. Windchill Dew Point Humidity Pressure Visibility Wind Dir Wind Speed Gust Speed Precip Events Conditions
12:53 AM 19.9 °F 12.1 °F -0.9 °F 40% 30.03 in 10.0 mi North 5.8 mph - N/A   Clear
1:53 AM 21.9 °F 13.4 °F -0.9 °F 37% 30.01 in 10.0 mi North 6.9 mph - N/A   Clear
3:53 AM 24.1 °F 14.4 °F -0.9 °F 34% 29.98 in 10.0 mi North 9.2 mph 19.6 mph N/A   Mostly Cloudy
4:53 AM 26.1 °F 15.0 °F -0.9 °F 31% 29.96 in 10.0 mi NNE 12.7 mph 23.0 mph N/A   Scattered Clouds
5:53 AM 27.0 °F 16.1 °F -2.0 °F 29% 29.93 in 10.0 mi NNE 12.7 mph 19.6 mph N/A   Partly Cloudy
6:53 AM 28.0 °F 19.3 °F -0.9 °F 29% 29.91 in 10.0 mi NNE 9.2 mph 18.4 mph N/A   Scattered Clouds
7:53 AM 28.9 °F 19.8 °F -0.0 °F 29% 29.91 in 10.0 mi NNE 10.4 mph 19.6 mph N/A   Overcast
8:53 AM 30.0 °F 21.1 °F 1.0 °F 29% 29.89 in 10.0 mi North 10.4 mph - N/A   Overcast
9:53 AM 30.9 °F 25.2 °F 1.9 °F 29% 29.88 in 10.0 mi Variable 5.8 mph - N/A   Overcast
10:53 AM 33.1 °F 25.5 °F 3.0 °F 28% 29.88 in 10.0 mi North 9.2 mph - N/A   Overcast
11:53 AM 34.0 °F 25.0 °F 3.9 °F 28% 29.88 in 10.0 mi NNE 12.7 mph 23.0 mph N/A   Overcast
12:53 PM 36.0 °F 26.7 °F 6.1 °F 29% 29.86 in 10.0 mi NNE 15.0 mph 21.9 mph N/A   Overcast
1:53 PM 37.0 °F 29.8 °F 8.1 °F 30% 29.84 in 10.0 mi NNE 10.4 mph - N/A   Overcast
2:53 PM 39.0 °F 33.4 °F 10.0 °F 30% 29.82 in 10.0 mi NNE 8.1 mph - N/A   Scattered Clouds
3:53 PM 39.9 °F 33.4 °F 12.0 °F 32% 29.80 in 10.0 mi NNE 10.4 mph - N/A   Partly Cloudy
4:53 PM 42.1 °F 38.4 °F 12.9 °F 31% 29.78 in 10.0 mi NNE 5.8 mph - N/A   Overcast
5:53 PM 42.1 °F 37.1 °F 12.9 °F 31% 29.77 in 10.0 mi NNE 8.1 mph - N/A   Overcast
6:53 PM 41.0 °F 35.8 °F 12.0 °F 31% 29.77 in 10.0 mi North 8.1 mph 19.6 mph N/A   Overcast
7:53 PM 41.0 °F 34.3 °F 12.9 °F 32% 29.76 in 10.0 mi NNE 11.5 mph 19.6 mph N/A   Partly Cloudy
8:53 PM 37.9 °F - 12.9 °F 36% 29.76 in 10.0 mi Calm Calm - N/A   Scattered Clouds
9:53 PM 37.0 °F 34.5 °F 15.1 °F 41% 29.77 in 10.0 mi Variable 3.5 mph - N/A   Clear
10:53 PM 39.0 °F 33.4 °F 15.1 °F 38% 29.77 in 10.0 mi NNE 8.1 mph - N/A   Partly Cloudy
11:53 PM 37.9 °F 35.5 °F 15.1 °F 39% 29.78 in 10.0 mi NE 3.5 mph - N/A   Clear